CW6144 Weather Reports


Display with metric or nautical units.
time (UTC)temp
F
wind
direction
speed
MPH
gust
MPH
rain 1hr
in
rain 24hr
in
rain mn
in
humidity
%
barometer
mb
20260507004007 53 17 0.0 2.0 0.00 0.02 0.02 71 1016.6
20260507003509 53 17 1.0 2.0 0.00 0.02 0.02 71 1016.5
20260507003026 53 9 2.0 3.0 0.00 0.02 0.02 71 1016.5
20260507002509 53 24 0.0 4.0 0.00 0.02 0.02 70 1016.9
20260507002011 53 32 2.0 4.0 0.00 0.02 0.02 69 1016.4
20260507001511 53 16 1.0 3.0 0.00 0.02 0.02 69 1016.6
20260507001004 53 5 1.0 3.0 0.00 0.02 0.02 70 1016.4
20260507000504 53 345 2.0 5.0 0.00 0.02 0.02 68 1016.8
20260507000012 53 20 2.0 5.0 0.00 0.02 0.02 68 1016.6
20260506235507 53 50 3.0 6.0 0.00 0.02 0.02 67 1016.5
20260506235006 53 28 4.0 8.0 0.00 0.02 0.02 67 1016.5
20260506234516 54 5 4.0 9.0 0.00 0.02 0.02 65 1016.5
20260506234006 54 12 2.0 9.0 0.00 0.02 0.02 66 1016.4
20260506233510 54 19 4.0 10.0 0.00 0.02 0.02 66 1016.2
20260506233024 54 20 2.0 10.0 0.00 0.02 0.02 66 1016.3
20260506232508 54 322 4.0 8.0 0.00 0.02 0.02 67 1016.0
20260506232006 53 17 3.0 8.0 0.00 0.02 0.02 66 1016.1
20260506231525 53 30 3.0 8.0 0.00 0.02 0.02 66 1016.4
20260506231007 53 19 4.0 12.0 0.00 0.02 0.02 66 1016.2
20260506230509 53 9 4.0 12.0 0.00 0.02 0.02 67 1016.0
20260506230014 53 24 4.0 13.0 0.00 0.02 0.02 67 1015.8
20260506225505 53 19 8.0 13.0 0.00 0.02 0.02 67 1015.9
20260506225018 53 44 4.0 11.0 0.00 0.02 0.02 68 1015.6
20260506224517 53 9 7.0 12.0 0.00 0.02 0.02 68 1015.2
20260506224006 53 24 6.0 12.0 0.00 0.02 0.02 68 1015.2
20260506223506 53 16 4.0 13.0 0.00 0.02 0.02 70 1015.3
20260506223020 52 36 6.0 13.0 0.00 0.02 0.02 71 1015.0
20260506222509 52 17 3.0 8.0 0.00 0.02 0.02 72 1015.0
20260506222013 52 20 3.0 8.0 0.00 0.02 0.02 72 1015.0
20260506221525 53 5 3.0 9.0 0.00 0.02 0.02 71 1015.2
20260506221011 53 336 5.0 10.0 0.00 0.02 0.02 69 1015.2
20260506220509 53 344 5.0 11.0 0.00 0.02 0.02 69 1015.1
20260506220028 53 17 6.0 11.0 0.00 0.02 0.02 68 1015.0
20260506215510 53 331 5.0 11.0 0.00 0.02 0.02 68 1015.2
20260506215004 53 360 3.0 12.0 0.00 0.02 0.02 68 1015.5
20260506214513 54 18 5.0 12.0 0.00 0.02 0.02 67 1015.5
20260506214004 54 341 5.0 10.0 0.00 0.02 0.02 65 1015.5
20260506213506 54 305 6.0 14.0 0.00 0.02 0.02 67 1015.5
20260506213018 54 343 4.0 14.0 0.00 0.02 0.02 67 1015.3
20260506212507 54 352 6.0 13.0 0.00 0.02 0.02 64 1015.4
20260506212010 55 346 7.0 13.0 0.00 0.02 0.02 64 1015.4
20260506211525 55 30 8.0 15.0 0.00 0.02 0.02 65 1015.5
20260506211008 55 67 5.0 15.0 0.00 0.02 0.02 65 1015.5
20260506210512 55 59 9.0 15.0 0.00 0.02 0.02 63 1015.5
20260506210031 55 317 5.0 13.0 0.00 0.02 0.02 62 1015.6
20260506205511 54 26 6.0 12.0 0.00 0.02 0.02 64 1015.6
20260506205009 54 16 4.0 13.0 0.00 0.02 0.02 67 1015.6
20260506204504 54 15 4.0 13.0 0.00 0.02 0.02 66 1015.8
20260506204004 54 57 6.0 12.0 0.00 0.02 0.02 67 1015.8
20260506203503 54 352 7.0 11.0 0.00 0.02 0.02 68 1016.0
20260506203005 53 23 4.0 10.0 0.00 0.02 0.02 67 1016.1
20260506202503 53 352 4.0 10.0 0.00 0.02 0.02 69 1016.3
20260506202003 53 347 3.0 12.0 0.00 0.02 0.02 71 1016.6
20260506201504 53 335 6.0 12.0 0.00 0.02 0.02 68 1016.4
20260506201003 52 22 4.0 9.0 0.00 0.02 0.02 70 1016.4
20260506200503 52 53 3.0 9.0 0.00 0.02 0.02 72 1016.6
20260506200004 52 334 3.0 5.0 0.00 0.02 0.02 74 1016.8
20260506195502 51 32 2.0 4.0 0.00 0.02 0.02 75 1016.8
20260506195002 51 9 2.0 7.0 0.00 0.02 0.02 74 1016.7
20260506194506 51 5 3.0 7.0 0.00 0.02 0.02 73 1016.8
20260506194003 51 9 3.0 6.0 0.00 0.02 0.02 75 1017.2
20260506193503 51 138 1.0 5.0 0.00 0.02 0.02 76 1017.2
20260506193003 51 287 2.0 9.0 0.00 0.02 0.02 75 1017.2
20260506192503 51 334 4.0 10.0 0.00 0.02 0.02 73 1017.2
20260506192006 51 351 4.0 10.0 0.00 0.02 0.02 75 1017.2
20260506191504 51 331 5.0 10.0 0.00 0.02 0.02 75 1017.2
20260506191002 51 352 4.0 9.0 0.00 0.02 0.02 76 1017.3
20260506190503 51 348 3.0 9.0 0.00 0.02 0.02 76 1017.1
20260506190004 51 11 4.0 11.0 0.00 0.02 0.02 73 1017.1
20260506185502 51 352 4.0 11.0 0.00 0.02 0.02 75 1017.3
20260506185002 51 328 6.0 11.0 0.00 0.02 0.02 75 1017.3
20260506184506 51 331 7.0 11.0 0.00 0.02 0.02 73 1017.1
20260506184004 51 9 3.0 12.0 0.00 0.02 0.02 76 1016.8
20260506183505 51 31 8.0 14.0 0.00 0.02 0.02 73 1016.7
20260506183008 52 18 7.0 14.0 0.00 0.02 0.02 73 1016.9
20260506182503 51 15 4.0 12.0 0.00 0.02 0.02 75 1017.0
20260506182004 51 42 7.0 12.0 0.00 0.02 0.02 75 1017.1
20260506181507 51 16 5.0 13.0 0.00 0.02 0.02 77 1017.2
20260506181004 50 36 5.0 13.0 0.00 0.02 0.02 74 1017.4
20260506180504 51 344 4.0 13.0 0.00 0.02 0.02 74 1017.3
20260506180012 51 360 6.0 13.0 0.00 0.02 0.02 77 1017.4
20260506175501 50 39 4.0 11.0 0.00 0.02 0.02 75 1017.3
20260506175002 50 351 7.0 11.0 0.00 0.02 0.02 76 1017.5
20260506174504 50 352 5.0 10.0 0.00 0.02 0.02 78 1017.6
20260506174003 50 62 2.0 10.0 0.00 0.02 0.02 78 1017.7
20260506173504 50 342 6.0 11.0 0.00 0.02 0.02 76 1017.6
20260506173017 49 24 4.0 11.0 0.00 0.02 0.02 78 1017.7
20260506172503 49 352 4.0 7.0 0.00 0.02 0.02 78 1017.4
20260506172006 49 11 3.0 9.0 0.00 0.02 0.02 78 1017.6
20260506171514 49 49 3.0 11.0 0.00 0.02 0.02 77 1017.4
20260506171004 49 67 5.0 11.0 0.00 0.02 0.02 78 1017.2
20260506170503 49 17 6.0 11.0 0.00 0.02 0.02 78 1017.1
20260506170009 48 21 4.0 12.0 0.00 0.02 0.02 80 1017.3
20260506165503 48 40 6.0 12.0 0.00 0.02 0.02 80 1017.4
20260506165003 48 13 7.0 12.0 0.00 0.02 0.02 79 1017.3
20260506164508 48 34 3.0 11.0 0.00 0.02 0.02 80 1017.6
20260506164002 48 24 7.0 12.0 0.00 0.02 0.02 81 1017.4
20260506163503 48 71 8.0 13.0 0.00 0.02 0.02 79 1017.2
20260506163008 48 24 6.0 13.0 0.00 0.02 0.02 80 1017.4
20260506162503 48 352 6.0 12.0 0.00 0.02 0.02 82 1017.0
20260506162006 48 36 9.0 12.0 0.00 0.02 0.02 82 1016.9
20260506161511 47 10 7.0 16.0 0.00 0.02 0.02 83 1016.7
20260506161005 47 44 11.0 16.0 0.00 0.02 0.02 80 1016.9
20260506160505 47 38 5.0 15.0 0.00 0.02 0.02 82 1017.1
20260506160012 47 48 6.0 13.0 0.00 0.02 0.02 83 1017.2
20260506155504 47 352 6.0 13.0 0.00 0.02 0.02 83 1017.4
20260506155006 47 53 5.0 14.0 0.00 0.02 0.02 85 1017.2
20260506154512 46 29 7.0 14.0 0.00 0.02 0.02 84 1017.0
20260506154006 46 42 7.0 14.0 0.00 0.02 0.02 84 1017.1
20260506153507 46 14 9.0 14.0 0.00 0.02 0.02 84 1016.9
20260506153013 46 42 9.0 12.0 0.00 0.02 0.02 84 1016.7
20260506152504 46 40 6.0 12.0 0.00 0.02 0.02 84 1017.1
20260506152003 46 12 6.0 11.0 0.00 0.02 0.02 85 1017.2
20260506151509 46 46 4.0 11.0 0.00 0.02 0.02 85 1017.2
20260506151003 46 31 6.0 11.0 0.00 0.02 0.02 85 1017.1
20260506150507 45 30 5.0 13.0 0.00 0.02 0.02 86 1017.0
20260506150012 45 43 4.0 13.0 0.00 0.02 0.02 87 1016.9
20260506145506 45 52 4.0 10.0 0.00 0.02 0.02 88 1016.7
20260506145008 45 22 4.0 11.0 0.00 0.02 0.02 88 1016.8
20260506144513 44 59 5.0 13.0 0.00 0.02 0.02 88 1016.7
20260506144003 44 36 8.0 12.0 0.00 0.02 0.02 87 1016.7
20260506143503 44 38 6.0 13.0 0.00 0.02 0.02 89 1016.4
20260506143023 44 342 8.0 13.0 0.00 0.02 0.02 89 1016.2
20260506142506 44 19 6.0 13.0 0.00 0.02 0.02 89 1016.3
20260506142008 44 360 7.0 11.0 0.00 0.02 0.02 89 1016.6
20260506141516 44 9 5.0 11.0 0.00 0.02 0.02 89 1016.6
20260506141011 44 345 5.0 10.0 0.00 0.02 0.02 89 1016.8
20260506140503 43 343 5.0 10.0 0.00 0.02 0.02 90 1016.7
20260506140014 43 59 5.0 11.0 0.00 0.02 0.02 90 1016.4
20260506135507 43 32 5.0 11.0 0.00 0.02 0.02 90 1016.5
20260506135003 43 24 7.0 12.0 0.00 0.02 0.02 90 1016.5
20260506134515 43 46 4.0 13.0 0.00 0.02 0.02 90 1016.6
20260506134008 43 28 7.0 13.0 0.00 0.02 0.02 89 1016.6
20260506133506 42 31 5.0 9.0 0.00 0.03 0.02 91 1016.7
20260506133018 42 26 4.0 9.0 0.00 0.03 0.02 90 1016.6
20260506132511 42 13 3.0 10.0 0.00 0.03 0.02 91 1016.7
20260506132007 42 349 5.0 9.0 0.00 0.03 0.02 91 1016.4
20260506131528 42 23 4.0 11.0 0.00 0.03 0.02 91 1016.2
20260506131005 42 15 4.0 11.0 0.00 0.03 0.02 90 1016.4
20260506130506 42 42 5.0 11.0 0.00 0.03 0.02 91 1016.4
20260506130016 42 325 4.0 11.0 0.00 0.03 0.02 91 1016.4
20260506125506 42 49 7.0 11.0 0.00 0.03 0.02 92 1016.0
20260506125009 42 40 4.0 10.0 0.00 0.03 0.02 92 1016.0
20260506124516 41 21 3.0 12.0 0.00 0.03 0.02 92 1016.1
20260506124007 41 326 6.0 12.0 0.00 0.03 0.02 92 1016.2
20260506123507 41 334 5.0 12.0 0.00 0.03 0.02 92 1016.1
20260506123020 41 338 5.0 12.0 0.00 0.03 0.02 92 1016.0
20260506122507 41 350 4.0 12.0 0.00 0.03 0.02 92 1015.9
20260506122010 42 350 5.0 8.0 0.00 0.03 0.02 92 1015.8
20260506121520 42 9 3.0 8.0 0.00 0.03 0.02 91 1015.6
20260506121005 41 339 3.0 10.0 0.00 0.03 0.02 91 1015.5
20260506120507 41 15 6.0 10.0 0.00 0.03 0.02 91 1015.4
20260506120020 41 40 4.0 10.0 0.00 0.03 0.02 91 1015.2
20260506115516 41 23 5.0 10.0 0.00 0.03 0.02 91 1014.9
20260506115007 41 45 5.0 11.0 0.00 0.03 0.02 91 1014.9
20260506114521 41 21 5.0 11.0 0.00 0.03 0.02 91 1015.0
20260506114007 41 41 5.0 9.0 0.00 0.03 0.02 91 1014.9
20260506113506 41 333 4.0 9.0 0.00 0.03 0.02 91 1014.5
20260506113018 41 27 4.0 9.0 0.00 0.03 0.02 91 1014.5
20260506112505 41 44 5.0 9.0 0.00 0.03 0.02 91 1014.6
20260506112009 41 19 3.0 10.0 0.00 0.03 0.02 91 1014.5
20260506111504 41 29 6.0 11.0 0.00 0.03 0.02 91 1014.3
20260506111004 41 24 7.0 11.0 0.00 0.03 0.02 92 1014.2
20260506110504 41 26 4.0 9.0 0.00 0.03 0.02 92 1014.2
20260506110006 41 30 4.0 9.0 0.00 0.03 0.02 92 1014.1
20260506105504 41 34 5.0 10.0 0.00 0.03 0.02 92 1013.8
20260506105010 41 45 4.0 10.0 0.00 0.03 0.02 92 1013.6
20260506104510 41 44 7.0 10.0 0.00 0.03 0.02 92 1013.7
20260506104002 41 46 5.0 10.0 0.00 0.03 0.02 92 1013.7
20260506103504 41 48 4.0 11.0 0.00 0.03 0.02 92 1013.5
20260506103016 41 49 5.0 11.0 0.00 0.03 0.02 92 1013.5
20260506102507 41 28 4.0 8.0 0.00 0.03 0.02 92 1013.7
20260506102006 41 50 5.0 11.0 0.00 0.03 0.02 92 1013.5
20260506101533 41 63 6.0 11.0 0.00 0.03 0.02 92 1013.2
20260506101007 41 18 5.0 10.0 0.00 0.03 0.02 91 1013.1
20260506100509 41 30 5.0 11.0 0.00 0.04 0.02 91 1013.0
20260506100004 41 19 4.0 11.0 0.00 0.07 0.02 91 1013.1
20260506095506 41 32 5.0 11.0 0.00 0.12 0.02 91 1013.2
20260506095004 41 60 6.0 10.0 0.00 0.12 0.02 92 1013.1
20260506094520 41 39 6.0 10.0 0.00 0.13 0.02 92 1013.2
20260506094004 41 352 5.0 11.0 0.00 0.13 0.02 92 1013.3
20260506093510 41 42 6.0 13.0 0.00 0.15 0.02 91 1013.2
20260506093015 41 22 4.0 14.0 0.00 0.19 0.02 92 1013.2
20260506092506 41 53 6.0 16.0 0.00 0.19 0.02 91 1013.4
20260506092011 41 67 8.0 16.0 0.00 0.19 0.02 91 1013.1
20260506091516 41 34 8.0 15.0 0.00 0.20 0.02 92 1013.1
20260506091007 41 49 7.0 15.0 0.00 0.20 0.02 92 1012.9
20260506090506 41 56 6.0 14.0 0.00 0.22 0.02 92 1012.9
20260506090026 41 20 6.0 14.0 0.00 0.24 0.02 92 1013.0
20260506085506 41 23 7.0 15.0 0.00 0.29 0.02 92 1013.0
20260506085007 41 31 9.0 16.0 0.00 0.35 0.02 92 1012.8
20260506084504 41 51 9.0 16.0 0.00 0.44 0.02 93 1012.7
20260506084004 41 44 8.0 13.0 0.00 0.49 0.02 93 1012.7
20260506083502 41 33 5.0 11.0 0.00 0.49 0.02 93 1012.7
20260506083011 41 13 5.0 13.0 0.00 0.50 0.02 94 1012.7
20260506082503 41 26 5.0 14.0 0.00 0.50 0.02 94 1012.4
20260506082006 42 57 8.0 14.0 0.00 0.50 0.02 94 1012.3
20260506081517 42 5 8.0 13.0 0.00 0.50 0.02 94 1012.6
20260506081006 42 24 5.0 9.0 0.00 0.52 0.02 94 1012.5
20260506080510 42 360 5.0 11.0 0.01 0.52 0.02 94 1012.7
20260506073510 42 32 5.0 12.0 0.02 0.55 0.02 94 1012.4
20260506073016 42 17 7.0 12.0 0.02 0.55 0.02 94 1012.3
20260506072504 42 10 7.0 14.0 0.02 0.55 0.02 94 1012.1
20260506072006 42 352 8.0 14.0 0.02 0.55 0.02 95 1011.9
20260506071513 42 5 7.0 13.0 0.02 0.55 0.02 95 1011.6
20260506071013 42 70 5.0 13.0 0.02 0.55 0.02 95 1011.9
20260506070506 42 49 6.0 11.0 0.01 0.54 0.01 94 1012.2
20260506062509 43 339 5.0 13.0 0.00 0.52 0.00 95 1012.2
20260506062009 43 5 7.0 12.0 0.00 0.52 0.00 95 1012.1
20260506061508 43 28 5.0 10.0 0.00 0.52 0.00 95 1012.2
20260506061002 43 330 6.0 13.0 0.00 0.52 0.00 95 1012.4
20260506060506 43 360 7.0 13.0 0.00 0.52 0.00 95 1012.5
20260506051009 43 26 5.0 12.0 0.00 0.52 0.00 95 1012.2
20260506050502 43 24 4.0 13.0 0.00 0.52 0.00 95 1012.2
20260506045011 43 38 8.0 12.0 0.00 0.52 0.52 95 1011.7
20260506044559 43 19 5.0 10.0 0.00 0.52 0.52 95 1011.7
20260506044003 43 51 5.0 12.0 0.00 0.52 0.52 95 1011.9
20260506043505 43 15 7.0 16.0 0.00 0.52 0.52 95 1011.8
20260506043003 43 360 8.0 16.0 0.00 0.52 0.52 95 1011.9
20260506042503 43 48 5.0 12.0 0.00 0.52 0.52 95 1011.6
20260506042002 43 33 9.0 12.0 0.00 0.52 0.52 95 1011.3
20260506041504 43 34 3.0 9.0 0.00 0.52 0.52 95 1011.4
20260506041007 44 34 4.0 9.0 0.00 0.52 0.52 95 1011.3
20260506040505 44 22 6.0 9.0 0.00 0.52 0.52 95 1011.3
20260506040010 44 17 4.0 13.0 0.00 0.52 0.52 95 1011.4
20260506035502 44 340 7.0 13.0 0.00 0.52 0.52 95 1011.5
20260506035007 44 351 6.0 15.0 0.00 0.52 0.52 95 1011.3
20260506034548 44 21 4.0 15.0 0.00 0.52 0.52 95 1011.5
20260506034009 44 352 9.0 17.0 0.00 0.52 0.52 95 1011.5
20260506033506 44 29 9.0 17.0 0.00 0.52 0.52 95 1011.3
20260506033021 44 42 6.0 11.0 0.00 0.52 0.52 94 1011.2
20260506032503 44 11 4.0 12.0 0.00 0.52 0.52 94 1011.2
20260506032003 44 19 8.0 14.0 0.00 0.52 0.52 94 1011.0
20260506031504 44 34 7.0 14.0 0.00 0.52 0.52 94 1010.9
20260506031004 44 18 4.0 12.0 0.00 0.52 0.52 94 1011.0
20260506030504 44 350 7.0 15.0 0.00 0.52 0.52 94 1010.8
20260506030008 44 321 5.0 15.0 0.00 0.52 0.52 94 1010.6
20260506025503 44 22 7.0 13.0 0.00 0.52 0.52 94 1010.5
20260506025004 44 22 7.0 13.0 0.00 0.52 0.52 94 1010.4
20260506024528 45 28 6.0 10.0 0.00 0.52 0.52 94 1010.3
20260506024015 45 37 6.0 9.0 0.00 0.52 0.52 94 1010.2
20260506023509 45 345 6.0 10.0 0.00 0.52 0.52 94 1010.2
20260506023018 45 48 4.0 13.0 0.00 0.52 0.52 1010.4
20260506022506 45 352 4.0 13.0 0.00 0.52 0.52 1010.4
20260506022009 45 335 7.0 13.0 0.00 0.52 0.52 94 1010.3
20260506021532 45 346 5.0 10.0 0.00 0.52 0.52 94 1010.2
20260506021009 45 13 2.0 9.0 0.00 0.52 0.52 94 1010.2
20260506020504 45 360 3.0 12.0 0.00 0.52 0.52 94 1010.2
20260506020006 45 11 4.0 12.0 0.00 0.52 0.52 94 1010.2
20260506015504 45 338 7.0 12.0 0.00 0.52 0.52 94 1010.2
20260506015006 45 311 6.0 12.0 0.00 0.52 0.52 94 1010.1
20260506014507 45 46 5.0 14.0 0.00 0.52 0.52 94 1009.6
20260506014011 46 360 7.0 14.0 0.00 0.52 0.52 94 1009.5
20260506013512 46 19 9.0 14.0 0.00 0.52 0.52 94 1009.4
20260506013015 46 5 4.0 9.0 0.00 0.52 0.52 1009.3
20260506012506 46 25 4.0 9.0 0.00 0.52 0.52 94 1009.4
20260506012010 47 17 6.0 11.0 0.00 0.52 0.52 94 1009.6
20260506011531 47 360 4.0 11.0 0.00 0.52 0.52 94 1009.7
20260506011012 47 321 3.0 13.0 0.00 0.52 0.52 94 1009.6
20260506010507 47 24 6.0 13.0 0.00 0.52 0.52 94 1009.4
20260506010022 48 326 5.0 10.0 0.00 0.52 0.52 94 1009.3
20260506005503 48 22 5.0 10.0 0.00 0.52 0.52 94 1009.2
20260506005002 48 23 4.0 14.0 0.00 0.52 0.52 94 1009.3
20260506004516 48 344 5.0 14.0 0.00 0.52 0.52 94 1009.2